Weather History for Sitka, AK

Change the Weather History Date:

Tuesday, February 18, 2014

  Actual Average Record
Temperature  
Mean Temperature 34 °F -  
Max Temperature 39 °F 40 °F 53 °F (1977)
Min Temperature 28 °F 32 °F 9 °F (1986)
Degree Days  
Heating Degree Days 32    
Moisture  
Dew Point 27 °F    
Average Humidity 80    
Maximum Humidity 100    
Minimum Humidity 53    
Precipitation  
Precipitation 0.09 in - - ()
Snow  
Snow 0.00 in - - ()
Snow Depth 3.00 in    
Sea Level Pressure  
Sea Level Pressure 29.27 in    
Wind  
Wind Speed 7 mph (East)    
Max Wind Speed 13 mph    
Max Gust Speed -    
Visibility 8 miles    
Events Snow    
Averages and records for this station are not official NWS values.
T = Trace of Precipitation, MM = Missing Value Source: NWS Daily Summary

Daily Weather History Graph

Daily Weather History Graph

Search for Another Location

Airport:

Trip Planner

Search our weather history database for the weather conditions in past years. The results will help you decide how hot, cold, wet, or windy it might be!

Date:

Astronomy

Feb. 18, 2014 Rise Set
Actual Time 7:21 AM AKST 5:09 PM AKST
Civil Twilight 6:42 AM AKST 5:49 PM AKST
Nautical Twilight 5:57 AM AKST 6:33 PM AKST
Astronomical Twilight 5:13 AM AKST 7:18 PM AKST
Moon 10:07 PM AKST (2/18) 8:08 AM AKST (2/18)
Length of Visible Light 11h 06m
Length of Day
9h 47m
Waning Gibbous, 86% of the Moon is Illuminated
Feb 18
Waning Gibbous
Feb 22
Last Quarter
Feb 28
New
Mar 8
First Quarter
Mar 16
Full

Hourly Weather History & Observations

Time (AKST) Temp. Windchill Dew Point Humidity Pressure Visibility Wind Dir Wind Speed Gust Speed Precip Events Conditions
12:31 AM 33.1 °F 26.1 °F 30.9 °F 92% 29.31 in 4.0 mi ESE 8.1 mph - 0.00 in Snow Light Snow
12:53 AM 33.1 °F 25.5 °F 30.9 °F 92% 29.31 in 4.0 mi SE 9.2 mph - 0.00 in Snow Light Snow
1:03 AM 33.1 °F 26.9 °F 30.9 °F 92% 29.32 in 1.8 mi ESE 6.9 mph - 0.00 in Snow Light Snow
1:11 AM 33.1 °F 26.9 °F 30.9 °F 92% 29.32 in 0.8 mi ESE 6.9 mph - 0.01 in Snow Light Snow
1:28 AM 33.1 °F 26.1 °F 32.0 °F 96% 29.32 in 0.8 mi ESE 8.1 mph - 0.04 in Snow Light Snow
1:53 AM 32.0 °F 24.8 °F 32.0 °F 100% 29.32 in 1.0 mi East 8.1 mph - 0.06 in Snow Light Snow
2:08 AM 32.0 °F 22.5 °F 32.0 °F 100% 29.32 in 0.8 mi ESE 12.7 mph - 0.02 in Snow Light Snow
2:34 AM 32.0 °F 24.2 °F 30.9 °F 96% 29.32 in 1.2 mi East 9.2 mph - 0.03 in Snow Light Snow
2:42 AM 32.0 °F 26.4 °F 30.9 °F 96% 29.32 in 2.0 mi East 5.8 mph - 0.03 in Snow Light Snow
2:51 AM 33.8 °F 27.0 °F 30.2 °F 87% 29.32 in 7.0 mi East 8.1 mph - 0.03 in Snow Light Snow
2:53 AM 33.1 °F 27.7 °F 30.0 °F 89% 29.32 in 9.0 mi East 5.8 mph - 0.03 in   Overcast
3:05 AM 33.1 °F 26.1 °F 30.0 °F 89% 29.32 in 10.0 mi East 8.1 mph - N/A   Overcast
3:53 AM 32.0 °F 25.6 °F 28.9 °F 88% 29.31 in 10.0 mi East 6.9 mph - N/A   Overcast
4:53 AM 33.1 °F 24.9 °F 27.0 °F 78% 29.29 in 10.0 mi East 10.4 mph - N/A   Partly Cloudy
5:53 AM 28.9 °F 22.8 °F 25.0 °F 85% 29.27 in 10.0 mi East 5.8 mph - N/A   Clear
6:53 AM 30.9 °F 24.3 °F 25.0 °F 79% 29.25 in 10.0 mi SE 6.9 mph - N/A   Partly Cloudy
7:53 AM 30.9 °F 27.5 °F 26.1 °F 82% 29.24 in 10.0 mi North 3.5 mph - N/A   Scattered Clouds
8:53 AM 30.0 °F - 26.1 °F 85% 29.22 in 10.0 mi Calm Calm - N/A   Scattered Clouds
9:53 AM 34.0 °F 29.8 °F 25.0 °F 70% 29.19 in 10.0 mi WNW 4.6 mph - N/A   Scattered Clouds
10:53 AM 35.1 °F 32.2 °F 24.1 °F 64% 29.18 in 10.0 mi East 3.5 mph - N/A   Mostly Cloudy
11:53 AM 37.0 °F - 26.1 °F 65% 29.16 in 10.0 mi Calm Calm - N/A   Mostly Cloudy
12:53 PM 39.0 °F - 23.0 °F 53% 29.15 in 10.0 mi Calm Calm - N/A   Mostly Cloudy
1:53 PM 39.0 °F 36.8 °F 23.0 °F 53% 29.15 in 10.0 mi NE 3.5 mph - N/A   Mostly Cloudy
2:53 PM 37.0 °F 32.4 °F 23.0 °F 57% 29.16 in 10.0 mi East 5.8 mph - N/A   Mostly Cloudy
3:53 PM 37.0 °F 34.5 °F 23.0 °F 57% 29.18 in 10.0 mi ENE 3.5 mph - N/A   Mostly Cloudy
4:53 PM 35.1 °F 30.1 °F 28.0 °F 76% 29.20 in 10.0 mi East 5.8 mph - N/A   Mostly Cloudy
5:53 PM 34.0 °F 27.2 °F 25.0 °F 70% 29.24 in 10.0 mi East 8.1 mph - N/A   Mostly Cloudy
6:53 PM 34.0 °F 28.0 °F 23.0 °F 64% 29.26 in 10.0 mi East 6.9 mph - N/A   Mostly Cloudy
7:53 PM 33.1 °F 28.7 °F 24.1 °F 70% 29.29 in 10.0 mi ESE 4.6 mph - N/A   Mostly Cloudy
8:53 PM 33.1 °F 30.0 °F 24.1 °F 70% 29.31 in 10.0 mi ENE 3.5 mph - N/A   Mostly Cloudy
9:53 PM 30.9 °F 25.2 °F 25.0 °F 79% 29.34 in 10.0 mi East 5.8 mph - N/A   Mostly Cloudy
10:53 PM 30.0 °F 23.2 °F 24.1 °F 79% 29.36 in 10.0 mi ENE 6.9 mph - N/A   Mostly Cloudy
11:53 PM 28.0 °F - 25.0 °F 88% 29.39 in 10.0 mi Calm Calm - N/A   Clear